Terminal Aerodrome Forecast
Issued by NWS Denver/Boulder, CO

Home | Current Version | Previous Version | Text Only | Print | Product List | Glossary On
Versions: 1 2 3 4 5 6 7 8 9 10 11 12 13 14 15 16 17 18 19 20 21 22 23 24 25 26 27 28 29 30 31 32 33 34 35 36 37 38 39 40 41 42 43 44 45 46 47 48 49 50
000
FTUS45 KBOU 262320
TAFDEN
TAF
KDEN 262320Z 2700/2806 09015KT P6SM FEW060 FEW140
     FM270100 13011KT P6SM FEW150
     FM270200 19008KT P6SM FEW150
     FM270600 22012KT P6SM SCT200
     FM271400 23012KT P6SM SCT110 BKN200
     FM272100 25010KT P6SM FEW110 SCT200
     FM280100 21011KT P6SM SCT200=

USA.gov is the U.S. government's official web portal to all federal, state and local government web resources and services.